FW7875 Weather Reports


Display with metric or nautical units.
time (UTC)temp
F
wind
direction
speed
MPH
gust
MPH
rain 1hr
in
rain 24hr
in
rain mn
in
humidity
%
barometer
mb
20260505053040 48 139 3.0 6.0 0.00 0.04 0.04 40 1011.4
20260505052515 48 122 3.0 6.0 0.00 0.04 0.04 40 1011.4
20260505052015 48 133 4.0 6.0 0.00 0.04 0.04 41 1011.5
20260505051539 47 124 4.0 6.0 0.00 0.04 0.04 42 1011.5
20260505051014 47 137 3.0 5.0 0.00 0.04 0.04 44 1011.6
20260505050517 46 142 3.0 4.0 0.00 0.04 0.04 46 1011.5
20260505041534 44 88 3.0 5.0 0.00 0.04 0.04 52 1011.8
20260505041018 45 86 4.0 6.0 0.00 0.04 0.04 51 1011.7
20260505040515 45 82 4.0 6.0 0.00 0.04 0.04 51 1011.8
20260505040034 45 72 3.0 5.0 0.00 0.04 0.04 51 1011.9
20260505035517 45 87 4.0 5.0 0.00 0.04 0.04 51 1011.8
20260505035013 45 82 3.0 5.0 0.00 0.04 0.04 50 1011.8
20260505034533 45 84 3.0 5.0 0.00 0.04 0.04 49 1011.9
20260505034015 46 89 3.0 5.0 0.00 0.04 0.04 49 1011.9
20260505033513 46 65 3.0 6.0 0.00 0.04 0.04 48 1011.9
20260505033032 47 79 3.0 7.0 0.00 0.04 0.04 46 1011.9
20260505032514 47 77 4.0 7.0 0.00 0.04 0.04 44 1011.7
20260505032014 48 70 4.0 7.0 0.00 0.04 0.04 44 1011.7
20260505031538 49 72 3.0 4.0 0.00 0.04 0.04 42 1011.5
20260505031020 50 70 1.0 3.0 0.00 0.04 0.04 39 1011.3
20260505030515 52 0 0.0 2.0 0.00 0.04 0.04 34 1011.4
20260505030035 52 131 0.0 2.0 0.00 0.04 0.04 34 1011.5
20260505025514 53 96 0.0 2.0 0.00 0.04 0.04 33 1011.4
20260505025014 53 135 0.0 2.0 0.00 0.04 0.04 32 1011.3
20260505024531 53 120 1.0 1.0 0.00 0.04 0.04 31 1011.1
20260505024013 53 96 0.0 2.0 0.00 0.04 0.04 32 1011.2
20260505023513 53 0 0.0 2.0 0.00 0.04 0.04 31 1011.0
20260505023033 54 89 1.0 4.0 0.00 0.04 0.04 30 1011.1
20260505022514 55 150 0.0 5.0 0.00 0.04 0.04 29 1011.0
20260505022016 55 203 2.0 6.0 0.00 0.04 0.04 28 1011.1
20260505021535 55 215 3.0 6.0 0.00 0.04 0.04 28 1011.1
20260505021016 55 215 4.0 6.0 0.00 0.04 0.04 28 1011.0
20260505020515 55 221 3.0 7.0 0.00 0.04 0.04 28 1010.8
20260505020036 56 217 3.0 7.0 0.00 0.04 0.04 28 1010.9
20260505015515 56 224 3.0 7.0 0.00 0.04 0.04 28 1010.8
20260505015016 56 250 3.0 7.0 0.00 0.04 0.04 28 1011.0
20260505014535 56 216 3.0 7.0 0.00 0.04 0.04 28 1010.9
20260505014013 56 224 3.0 11.0 0.00 0.04 0.04 28 1010.9
20260505013513 57 245 4.0 11.0 0.00 0.04 0.04 28 1010.8
20260505013032 57 224 5.0 9.0 0.00 0.04 0.04 28 1010.8
20260505012513 57 226 5.0 9.0 0.00 0.04 0.04 28 1011.0
20260505012014 57 245 6.0 13.0 0.00 0.04 0.04 28 1011.0
20260505011536 58 219 8.0 13.0 0.00 0.04 0.04 28 1010.9
20260505011014 58 231 7.0 13.0 0.00 0.04 0.04 28 1010.9
20260505010514 58 236 10.0 15.0 0.00 0.04 0.04 28 1011.0
20260505010055 58 212 11.0 15.0 0.00 0.04 0.04 28 1011.0
20260505005513 58 220 10.0 14.0 0.00 0.04 0.04 27 1011.0
20260505005014 59 211 6.0 15.0 0.00 0.04 0.04 28 1011.1
20260505004530 59 235 10.0 15.0 0.00 0.04 0.04 28 1011.1
20260505004013 59 248 10.0 15.0 0.00 0.04 0.04 28 1011.3
20260505003515 59 234 10.0 13.0 0.00 0.04 0.04 28 1011.2
20260505003041 59 240 8.0 19.0 0.00 0.04 0.04 28 1011.2
20260505002513 59 212 11.0 19.0 0.00 0.04 0.04 27 1011.3
20260505002012 59 212 11.0 23.0 0.00 0.04 0.04 26 1011.3
20260505001534 60 203 11.0 23.0 0.00 0.04 0.04 28 1011.2
20260505001013 60 246 12.0 17.0 0.00 0.04 0.04 27 1011.3
20260505000513 60 234 11.0 17.0 0.00 0.04 0.04 29 1011.3
20260505000042 60 237 10.0 15.0 0.00 0.04 0.04 27 1011.4
20260504235514 60 220 7.0 15.0 0.00 0.04 0.04 29 1011.4
20260504235014 60 207 10.0 16.0 0.00 0.04 0.04 30 1011.3
20260504234533 60 264 11.0 16.0 0.00 0.04 0.04 30 1011.3
20260504234014 60 232 13.0 17.0 0.00 0.04 0.04 30 1011.4
20260504233513 60 219 11.0 17.0 0.00 0.04 0.04 31 1011.3
20260504233032 60 243 11.0 20.0 0.00 0.04 0.04 31 1011.4
20260504232515 61 214 12.0 20.0 0.00 0.04 0.04 29 1011.5
20260504232017 61 207 11.0 20.0 0.00 0.04 0.04 27 1011.3
20260504231532 61 215 13.0 20.0 0.00 0.04 0.04 27 1011.3
20260504231015 62 221 11.0 21.0 0.00 0.04 0.04 28 1011.5
20260504230513 62 222 14.0 21.0 0.00 0.04 0.04 27 1011.5
20260504230041 61 245 13.0 19.0 0.00 0.04 0.04 28 1011.4
20260504225514 61 251 13.0 19.0 0.00 0.04 0.04 28 1011.4
20260504225015 61 233 14.0 19.0 0.00 0.04 0.04 27 1011.4
20260504224533 61 237 15.0 19.0 0.00 0.04 0.04 27 1011.3
20260504224013 61 257 11.0 19.0 0.00 0.04 0.04 28 1011.3
20260504223514 61 166 13.0 19.0 0.00 0.04 0.04 28 1011.5
20260504223032 61 224 11.0 22.0 0.00 0.04 0.04 28 1011.3
20260504222512 61 227 14.0 22.0 0.00 0.04 0.04 29 1011.4
20260504222018 61 226 13.0 22.0 0.00 0.04 0.04 27 1011.3
20260504221545 61 184 9.0 23.0 0.00 0.04 0.04 28 1011.3
20260504221017 62 191 12.0 23.0 0.00 0.04 0.04 31 1011.5
20260504220515 61 248 17.0 23.0 0.00 0.04 0.04 32 1011.6
20260504220035 62 206 13.0 21.0 0.00 0.04 0.04 32 1011.6
20260504215514 62 222 13.0 19.0 0.00 0.04 0.04 31 1011.6
20260504215014 61 194 12.0 21.0 0.00 0.04 0.04 34 1011.7
20260504214531 61 239 12.0 21.0 0.00 0.04 0.04 30 1011.8
20260504214013 62 231 12.0 21.0 0.00 0.04 0.04 33 1011.9
20260504213513 61 230 12.0 18.0 0.00 0.04 0.04 35 1011.9
20260504213042 61 227 14.0 18.0 0.00 0.04 0.04 35 1012.0
20260504212516 61 208 8.0 20.0 0.00 0.04 0.04 36 1012.1
20260504212014 61 226 13.0 20.0 0.00 0.04 0.04 36 1012.4
20260504211536 61 236 11.0 18.0 0.00 0.04 0.04 37 1012.3
20260504211014 61 245 12.0 19.0 0.00 0.04 0.04 39 1012.2
20260504210515 59 240 9.0 19.0 0.00 0.04 0.04 42 1012.4
20260504210038 58 257 6.0 12.0 0.00 0.04 0.04 46 1012.6
20260504205514 58 301 4.0 12.0 0.00 0.04 0.04 47 1012.5
20260504205013 58 226 4.0 12.0 0.00 0.04 0.04 49 1012.8
20260504204534 57 285 5.0 9.0 0.00 0.04 0.04 52 1012.9
20260504204015 56 314 5.0 9.0 0.00 0.04 0.04 51 1013.0
20260504203517 55 281 5.0 9.0 0.00 0.04 0.04 54 1013.1
20260504203043 55 294 4.0 10.0 0.00 0.04 0.04 56 1013.0
20260504202513 54 307 7.0 11.0 0.00 0.04 0.04 56 1013.1
20260504202014 54 295 7.0 13.0 0.00 0.04 0.04 57 1013.4
20260504201532 54 312 8.0 14.0 0.00 0.04 0.04 56 1013.2
20260504201013 54 307 9.0 15.0 0.00 0.04 0.04 56 1013.5
20260504200518 54 314 9.0 19.0 0.00 0.04 0.04 56 1013.5
20260504200032 54 303 11.0 20.0 0.00 0.04 0.04 56 1013.7
20260504195512 55 290 14.0 21.0 0.00 0.04 0.04 54 1013.6
20260504195014 56 276 17.0 23.0 0.00 0.04 0.04 52 1013.6
20260504194539 58 281 12.0 23.0 0.00 0.04 0.04 50 1013.5
20260504194014 61 246 15.0 22.0 0.00 0.04 0.04 38 1013.3
20260504193513 61 191 13.0 21.0 0.00 0.04 0.04 38 1013.1
20260504193032 61 209 13.0 22.0 0.00 0.04 0.04 40 1013.2
20260504192513 61 232 12.0 24.0 0.00 0.04 0.04 37 1013.2
20260504192016 61 191 16.0 24.0 0.00 0.04 0.04 36 1013.1
20260504191538 61 235 11.0 23.0 0.00 0.04 0.04 41 1012.9
20260504191013 61 251 14.0 23.0 0.00 0.04 0.04 42 1013.2
20260504190514 61 214 13.0 21.0 0.00 0.04 0.04 40 1013.1
20260504190030 61 222 14.0 21.0 0.00 0.04 0.04 45 1013.2
20260504185512 61 241 11.0 21.0 0.00 0.04 0.04 41 1013.1
20260504185014 61 232 13.0 21.0 0.00 0.04 0.04 42 1013.2
20260504184531 60 235 11.0 19.0 0.00 0.04 0.04 44 1013.2
20260504184013 60 211 11.0 25.0 0.00 0.04 0.04 43 1013.2
20260504183516 61 218 14.0 25.0 0.00 0.04 0.04 41 1013.3
20260504183031 61 238 9.0 17.0 0.00 0.04 0.04 45 1013.3
20260504182516 61 233 9.0 17.0 0.00 0.04 0.04 46 1013.4
20260504182017 61 235 8.0 17.0 0.00 0.04 0.04 48 1013.4
20260504181537 59 234 4.0 15.0 0.00 0.04 0.04 53 1013.6
20260504181013 59 153 7.0 13.0 0.00 0.04 0.04 51 1013.6
20260504180514 59 290 8.0 13.0 0.00 0.04 0.04 55 1013.7
20260504180035 59 258 6.0 13.0 0.00 0.04 0.04 58 1013.9
20260504175539 58 282 7.0 12.0 0.00 0.04 0.04 58 1013.9
20260504175013 57 259 6.0 13.0 0.00 0.04 0.04 59 1013.9
20260504174532 57 277 9.0 13.0 0.00 0.04 0.04 62 1013.9
20260504174013 57 291 6.0 13.0 0.00 0.04 0.04 64 1014.1
20260504173514 56 293 8.0 16.0 0.00 0.04 0.04 65 1014.1
20260504173034 56 289 8.0 18.0 0.00 0.04 0.04 64 1014.2
20260504172512 56 285 11.0 18.0 0.00 0.04 0.04 62 1014.3
20260504172016 56 285 11.0 16.0 0.00 0.04 0.04 64 1014.2
20260504171535 56 300 8.0 16.0 0.00 0.04 0.04 65 1014.3
20260504171015 55 285 11.0 16.0 0.00 0.04 0.04 62 1014.1
20260504170514 55 288 12.0 16.0 0.00 0.04 0.04 64 1014.2
20260504151014 53 326 0.0 3.0 0.00 0.04 0.04 66 1015.1
20260504150515 53 283 2.0 4.0 0.00 0.04 0.04 64 1015.2
20260504141018 46 107 3.0 4.0 0.00 0.04 0.04 86 1015.5
20260504140513 46 114 3.0 4.0 0.00 0.04 0.04 86 1015.3
20260504130512 42 84 5.0 8.0 0.00 0.04 0.04 87 1015.1
20260504110516 43 97 9.0 11.0 0.00 0.04 0.04 90 1015.4
20260504100511 44 63 3.0 10.0 0.03 0.04 0.04 90 1015.9
20260504081534 46 113 0.0 3.0 0.00 0.00 0.00 77 1016.1
20260504081020 46 107 1.0 9.0 0.00 0.00 0.00 78 1016.1
20260504080513 46 121 1.0 9.0 0.00 0.00 0.00 79 1016.1